Wind_Speed
18 18 18 18 17 18 18 18 18 18 19 19 19 20 21 20 21 21 22 23 23 22 21 21 21 22 22 22 22 22 22 22 22 22 22 22 23 23 24 24 24 24 25 25
19 18 19 19 19 19 19 19 20 20 20 21 21 20 21 20 20 20 22 23 23 24 23 22 22 22 23 23 23 24 24 23 24 24 23 23 24 24 25 25 25 25 25 26
21 20 20 19 19 19 19 20 21 21 20 21 21 21 21 21 20 20 21 22 22 22 23 23 23 23 24 24 24 25 25 25 25 25 25 24 24 24 24 25 25 26 26 26
21 21 22 19 19 20 21 22 22 21 21 22 22 22 22 22 22 21 22 22 22 22 23 24 24 24 25 25 25 26 26 25 25 25 25 25 25 25 25 25 26 26 27 27
22 23 23 22 20 21 22 23 22 22 22 22 22 22 22 23 23 23 24 24 24 24 25 25 24 25 25 25 26 26 26 26 26 26 25 25 26 26 26 27 27 27 27 28
24 25 25 24 23 23 23 24 23 23 22 22 23 23 23 23 23 24 24 24 24 25 25 25 25 25 25 25 25 26 26 26 26 26 26 27 27 27 28 27 27 28 29 29
25 26 27 25 24 24 25 25 24 25 24 24 24 24 24 24 24 25 25 25 25 25 25 25 26 26 27 27 27 27 27 27 27 28 28 28 28 29 29 29 29 29 29 29
27 28 27 26 25 25 25 25 25 25 26 26 25 25 26 26 26 26 26 26 26 26 25 26 26 27 27 28 28 28 28 28 28 29 29 29 29 30 30 30 29 29 29 30
28 27 27 28 27 27 27 27 27 27 28 27 27 26 26 26 27 27 26 26 26 27 27 27 28 28 28 28 29 29 29 29 29 29 29 30 30 31 31 31 30 30 30 31
29 28 28 30 30 30 29 28 27 29 29 28 28 28 28 28 28 27 27 28 28 28 28 28 29 29 29 30 30 30 30 30 30 30 30 30 31 31 31 32 32 31 31 31
30 30 30 31 31 31 31 30 29 29 30 30 29 29 29 29 28 28 28 28 29 29 29 29 30 30 31 31 31 31 31 31 31 31 31 31 31 32 32 32 32 32 32 31
31 31 33 32 33 32 32 31 30 30 30 30 30 30 30 30 29 29 29 29 29 30 30 30 31 31 32 33 33 32 32 32 31 31 32 32 32 32 32 32 31 31 31 31
33 33 34 33 34 33 33 32 32 31 31 31 31 31 31 31 32 32 31 31 30 31 31 32 32 33 33 33 33 33 33 33 32 33 33 33 33 32 32 32 32 32 31 31
34 35 35 34 34 34 34 33 32 32 32 32 32 32 32 32 33 33 33 32 32 31 32 33 33 33 33 33 33 33 33 34 34 34 34 33 32 32 32 32 32 33 33 32
34 35 35 35 35 34 34 34 33 32 32 33 33 33 33 33 33 33 33 33 33 32 33 33 33 33 34 34 34 33 34 35 35 35 34 34 32 32 32 33 32 32 33 33
34 34 34 34 34 34 33 34 34 34 34 34 34 34 34 33 33 33 33 33 33 33 33 33 33 34 34 34 34 34 34 35 35 34 34 33 33 32 33 33 33 33 33 33
32 32 33 33 33 33 34 34 34 35 35 35 35 34 34 34 34 33 33 34 34 34 33 34 34 34 34 34 35 34 35 35 34 34 34 33 33 33 33 33 33 33 33 33
31 32 32 32 33 33 34 34 34 34 34 34 34 35 34 34 34 34 34 34 34 34 34 34 35 35 34 34 34 34 34 34 34 34 34 34 34 34 34 34 34 34 33 33
31 32 32 33 33 33 33 33 33 33 33 33 34 34 34 34 34 34 34 35 35 34 34 35 35 35 35 35 35 35 34 34 34 34 34 34 34 34 34 34 33 33 33 33
31 31 31 32 32 32 32 32 33 33 33 33 33 33 34 34 34 34 35 35 34 34 34 34 34 35 35 35 35 34 34 34 34 34 33 33 33 34 34 33 33 32 32 31
29 29 30 30 31 31 32 33 33 33 33 33 34 33 33 34 34 35 35 34 34 34 33 33 34 34 34 34 34 34 34 33 33 33 32 33 33 33 33 32 31 31 31 30
29 29 30 30 31 30 31 31 32 32 32 33 33 33 33 34 34 34 34 34 34 34 33 33 34 34 34 34 34 33 33 32 32 32 31 31 32 32 32 31 30 30 30 29
30 30 30 30 31 31 30 31 31 31 32 32 32 32 33 33 34 34 34 34 34 33 33 33 33 33 33 33 33 33 33 32 32 32 32 32 31 31 30 30 30 29 29 28
31 31 31 31 31 31 31 31 32 32 32 32 32 32 33 33 34 34 34 34 34 33 32 32 33 33 33 34 33 33 33 32 32 32 31 31 31 30 29 29 29 29 29 28
31 31 31 32 32 32 32 32 32 32 33 33 33 33 33 34 34 34 34 34 33 33 32 32 33 33 33 33 33 32 32 32 32 31 31 31 30 30 29 29 29 28 28 28
32 32 32 32 33 33 33 33 33 32 32 32 32 33 33 33 33 33 32 32 32 33 32 32 33 33 32 32 31 31 31 31 31 30 30 29 29 28 28 28 28 28 28 27
33 33 33 33 33 33 32 32 32 31 31 31 32 33 33 33 32 32 32 32 31 32 32 32 31 31 31 31 31 31 31 31 30 30 29 29 28 27 27 27 27 27 27 27
Wind_Direction
260 261 265 266 264 264 266 267 267 267 269 272 276 277 279 278 277 274 275 277 279 280 280 281 281 282 282 284 286 288 289 289 288 287 286 285 283 283 283 283 282 278 276 277
265 263 263 265 262 263 267 268 270 270 271 273 275 278 280 279 278 276 274 275 278 280 282 282 281 281 282 283 284 286 289 290 290 288 286 286 285 284 284 283 282 280 278 277
265 264 266 264 262 267 269 268 270 272 274 275 278 277 278 278 278 278 278 277 278 279 281 282 282 282 281 282 283 284 286 288 288 287 286 286 285 284 284 284 282 282 279 278
269 266 265 270 269 270 271 271 271 272 274 275 276 278 278 278 279 279 280 280 279 279 279 280 282 283 282 282 283 283 284 286 287 287 286 285 284 283 283 284 284 283 282 280
271 270 270 270 273 272 272 272 272 270 274 277 278 277 276 278 280 282 283 282 281 280 280 280 280 281 281 283 283 283 284 284 284 285 285 284 284 283 282 283 283 283 283 281
269 270 272 273 275 274 274 274 272 271 274 276 279 278 278 279 281 282 284 283 284 283 281 281 281 280 281 282 283 283 284 285 284 283 283 284 284 284 283 282 282 283 283 280
268 269 271 274 273 275 275 276 275 273 275 275 277 280 282 282 282 282 283 285 285 284 282 282 282 281 281 281 283 284 285 287 285 283 283 284 285 284 283 282 282 283 283 282
267 269 272 273 273 274 276 276 276 276 276 277 278 280 281 283 284 283 283 285 283 283 283 283 283 283 283 284 284 285 286 287 286 284 283 283 284 284 283 282 283 282 282 282
267 269 271 272 273 273 274 276 275 275 277 278 280 281 281 282 283 283 282 283 282 282 282 282 283 284 284 285 285 286 287 287 286 285 283 283 283 283 283 283 283 283 282 282
267 267 269 271 272 273 273 275 276 277 278 278 280 281 282 281 282 283 283 283 283 282 282 281 282 283 284 285 285 285 286 286 285 285 283 282 283 283 284 284 283 283 282 282
267 268 268 269 271 273 273 273 274 276 278 279 280 280 281 279 280 281 282 283 283 282 282 282 281 283 283 283 284 285 286 286 286 285 284 283 283 282 283 284 283 283 282 281
268 268 268 269 270 271 272 273 273 274 276 278 279 280 280 280 280 282 283 283 284 284 283 283 282 282 282 282 283 283 284 285 285 286 285 285 284 284 285 285 284 284 283 282
268 268 268 269 270 271 272 273 273 273 275 277 277 278 280 281 281 283 283 283 284 284 284 284 284 283 283 283 282 283 284 284 285 285 285 285 285 285 286 285 285 285 284 283
267 268 268 268 269 270 271 272 273 273 274 275 276 277 279 280 281 282 282 282 284 284 284 284 286 285 285 286 284 284 284 285 285 286 287 287 286 285 285 285 284 283 283 282
268 267 267 268 268 270 271 271 272 272 273 275 276 277 278 280 281 281 281 282 283 283 284 284 285 286 285 286 286 286 286 285 285 285 285 286 286 285 285 285 284 283 282 281
268 268 267 267 268 268 269 270 271 273 274 275 276 278 279 280 281 280 280 281 282 282 283 284 285 286 286 286 287 287 287 286 285 285 283 284 285 285 284 284 283 284 282 281
268 268 268 268 268 268 269 270 272 273 275 276 276 277 278 279 280 281 280 281 282 282 283 283 285 286 287 287 287 287 287 287 286 284 283 284 285 285 285 285 285 284 283 280
269 269 269 270 271 270 270 272 274 276 277 277 277 277 278 279 279 281 281 281 282 282 283 283 284 285 288 289 288 288 288 287 286 285 284 284 285 286 285 285 285 284 282 280
271 271 271 272 272 271 272 274 275 276 277 276 277 278 279 280 280 281 282 282 282 281 281 282 284 286 287 288 289 289 288 288 286 285 285 285 284 285 285 284 284 283 280 278
272 272 272 273 273 272 273 274 274 275 276 276 276 277 278 279 280 281 282 283 282 282 282 282 284 285 287 287 288 289 289 288 286 286 285 285 285 284 284 282 280 280 280 279
272 272 272 272 273 273 274 274 274 275 275 276 276 277 278 278 280 281 283 282 282 282 282 283 283 284 285 286 287 288 288 288 286 287 287 286 285 285 285 283 281 281 281 279
274 274 274 275 276 276 276 276 276 276 277 277 276 277 278 279 279 280 281 281 282 282 283 284 284 285 285 285 287 288 288 288 288 287 288 288 287 285 285 284 283 283 281 280
275 275 276 276 277 278 278 277 277 277 277 278 277 278 279 280 280 280 281 281 282 283 283 284 284 286 286 286 288 289 289 290 290 290 289 289 288 286 284 283 283 283 282 281
274 273 274 276 277 278 279 279 278 276 276 278 278 279 280 281 282 281 282 282 283 284 284 284 285 286 287 286 286 288 290 291 291 292 291 290 289 287 285 283 283 283 283 281
273 272 273 275 276 277 278 279 279 278 278 279 279 279 281 283 284 284 283 283 283 285 285 284 285 286 286 286 286 287 289 290 291 292 292 291 289 287 285 284 283 282 283 282
273 272 273 275 276 276 277 278 280 281 280 280 279 280 282 284 284 284 284 283 284 285 285 285 285 286 286 286 286 287 288 289 291 291 291 291 290 289 286 284 283 282 281 282
274 273 274 275 276 276 276 277 279 280 281 281 281 281 282 283 283 283 283 282 283 284 285 285 286 286 287 288 287 287 288 289 290 290 290 291 290 289 287 286 284 283 283 283
Height
5780 5780 5780 5781 5782 5782 5782 5782 5783 5783 5783 5783 5782 5781 5781 5780 5780 5780 5779 5778 5778 5778 5778 5778 5777 5777 5776 5775 5774 5772 5771 5770 5769 5768 5766 5765 5765 5764 5763 5762 5762 5761 5761 5761
5775 5775 5776 5776 5777 5777 5777 5777 5777 5777 5778 5777 5776 5776 5775 5774 5774 5773 5773 5773 5772 5772 5772 5771 5771 5770 5770 5769 5768 5766 5765 5764 5762 5761 5760 5759 5758 5758 5757 5756 5755 5755 5754 5754
5770 5770 5770 5771 5772 5772 5772 5772 5772 5772 5773 5771 5770 5770 5769 5768 5768 5767 5767 5767 5766 5766 5766 5765 5764 5764 5763 5762 5761 5760 5759 5757 5756 5755 5754 5753 5752 5751 5750 5749 5748 5748 5747 5747
5765 5766 5764 5768 5767 5767 5766 5766 5766 5765 5765 5765 5764 5764 5763 5762 5762 5761 5761 5760 5760 5760 5759 5758 5758 5757 5756 5755 5754 5753 5752 5750 5749 5748 5747 5746 5744 5743 5743 5742 5741 5740 5740 5739
5759 5759 5759 5761 5761 5761 5760 5760 5760 5760 5759 5759 5758 5758 5757 5756 5756 5755 5755 5754 5753 5753 5752 5751 5751 5750 5749 5748 5746 5745 5744 5743 5742 5740 5739 5738 5737 5736 5735 5734 5733 5732 5732 5731
5753 5752 5753 5756 5756 5754 5755 5754 5754 5753 5753 5753 5752 5751 5752 5751 5750 5749 5748 5747 5747 5746 5745 5744 5744 5742 5741 5740 5739 5738 5736 5735 5734 5732 5731 5730 5729 5728 5727 5726 5725 5724 5723 5722
5747 5745 5746 5749 5749 5748 5749 5749 5748 5747 5747 5746 5746 5745 5745 5744 5743 5742 5742 5741 5740 5739 5738 5737 5736 5735 5734 5732 5731 5730 5728 5727 5725 5724 5723 5722 5721 5719 5718 5717 5716 5715 5715 5714
5739 5739 5742 5742 5741 5742 5742 5741 5741 5740 5740 5739 5739 5738 5738 5737 5736 5735 5735 5734 5733 5732 5731 5730 5729 5727 5726 5724 5723 5722 5720 5719 5717 5716 5715 5713 5712 5711 5709 5708 5707 5706 5705 5704
5733 5735 5734 5733 5734 5734 5734 5734 5733 5733 5733 5732 5732 5731 5731 5730 5729 5728 5727 5726 5725 5724 5723 5722 5721 5719 5718 5717 5715 5713 5712 5710 5709 5707 5706 5705 5703 5702 5700 5699 5698 5697 5696 5695
5725 5726 5726 5725 5725 5726 5726 5726 5726 5725 5725 5725 5724 5724 5723 5722 5721 5720 5719 5718 5717 5716 5715 5714 5713 5711 5710 5708 5707 5705 5704 5702 5700 5699 5697 5695 5694 5693 5691 5690 5688 5687 5686 5685
5717 5718 5717 5718 5717 5718 5718 5718 5718 5717 5717 5717 5716 5716 5715 5714 5713 5712 5711 5710 5709 5707 5706 5705 5704 5703 5701 5699 5698 5696 5695 5693 5691 5689 5687 5686 5685 5683 5681 5680 5678 5677 5676 5674
5708 5709 5709 5709 5709 5709 5709 5709 5709 5709 5709 5709 5708 5707 5706 5705 5705 5704 5702 5701 5700 5698 5697 5696 5695 5693 5692 5690 5688 5687 5685 5684 5682 5680 5678 5677 5675 5673 5671 5670 5668 5666 5665 5664
5699 5699 5699 5699 5699 5700 5700 5700 5700 5700 5700 5699 5699 5698 5697 5696 5696 5695 5693 5692 5691 5689 5688 5686 5685 5683 5681 5680 5678 5677 5675 5674 5672 5670 5668 5667 5665 5663 5662 5660 5658 5656 5655 5654
5688 5689 5689 5689 5690 5690 5690 5690 5690 5690 5690 5690 5689 5688 5688 5687 5686 5685 5684 5683 5681 5680 5678 5677 5675 5673 5672 5670 5668 5667 5665 5663 5661 5660 5658 5656 5654 5653 5651 5650 5648 5647 5645 5643
5678 5678 5679 5679 5680 5680 5681 5681 5681 5681 5680 5680 5679 5679 5678 5677 5676 5675 5674 5673 5672 5670 5669 5667 5665 5664 5662 5659 5658 5656 5654 5653 5651 5649 5647 5646 5644 5642 5641 5639 5638 5636 5635 5633
5668 5669 5669 5669 5670 5671 5671 5671 5671 5671 5671 5670 5669 5669 5668 5667 5666 5665 5664 5663 5662 5660 5659 5657 5655 5653 5651 5649 5647 5646 5644 5642 5640 5638 5637 5635 5634 5632 5630 5629 5627 5626 5624 5623
5658 5659 5659 5660 5660 5660 5661 5661 5661 5661 5660 5660 5659 5658 5658 5657 5656 5655 5654 5653 5651 5650 5648 5647 5645 5643 5641 5639 5637 5635 5633 5631 5629 5628 5626 5625 5623 5622 5620 5618 5616 5615 5613 5612
5649 5649 5650 5650 5650 5651 5651 5651 5651 5650 5650 5649 5649 5648 5647 5646 5646 5645 5643 5642 5641 5639 5638 5636 5635 5632 5630 5628 5626 5624 5622 5621 5619 5617 5615 5614 5612 5611 5609 5607 5605 5603 5602 5600
5640 5640 5641 5641 5641 5641 5641 5641 5641 5640 5639 5639 5638 5637 5637 5636 5635 5634 5633 5631 5630 5629 5628 5626 5624 5622 5620 5618 5616 5614 5612 5610 5608 5606 5605 5603 5601 5599 5598 5596 5594 5592 5591 5590
5631 5631 5632 5632 5632 5632 5632 5631 5631 5630 5629 5628 5628 5627 5627 5626 5624 5623 5622 5621 5620 5618 5617 5615 5613 5612 5610 5607 5605 5603 5601 5599 5597 5595 5594 5592 5590 5589 5587 5585 5584 5582 5581 5580
5622 5622 5622 5622 5622 5622 5621 5621 5620 5620 5619 5618 5618 5617 5616 5615 5614 5613 5612 5611 5610 5608 5606 5605 5603 5601 5599 5597 5595 5593 5591 5589 5587 5585 5583 5582 5580 5578 5577 5575 5573 5572 5571 5570
5614 5614 5613 5613 5613 5612 5612 5611 5610 5610 5609 5608 5607 5607 5606 5605 5604 5602 5601 5600 5599 5598 5596 5594 5593 5591 5589 5587 5585 5583 5581 5579 5577 5575 5573 5571 5570 5568 5567 5565 5564 5562 5561 5560
5605 5604 5604 5604 5603 5603 5602 5601 5601 5600 5599 5598 5597 5597 5596 5594 5593 5592 5591 5590 5588 5587 5585 5584 5582 5580 5578 5577 5575 5573 5571 5569 5568 5565 5563 5561 5560 5558 5556 5555 5554 5553 5551 5550
5595 5595 5595 5594 5594 5594 5593 5592 5591 5590 5589 5588 5587 5586 5585 5584 5583 5581 5580 5579 5578 5576 5575 5573 5571 5570 5568 5567 5565 5564 5562 5560 5558 5556 5553 5552 5550 5548 5547 5545 5544 5543 5542 5541
5586 5585 5585 5585 5585 5584 5583 5582 5581 5580 5579 5578 5577 5576 5575 5574 5573 5571 5569 5568 5567 5566 5565 5563 5561 5560 5558 5557 5555 5554 5552 5550 5548 5546 5544 5542 5540 5539 5537 5536 5535 5534 5532 5531
5576 5576 5576 5575 5575 5574 5573 5572 5571 5570 5569 5568 5567 5566 5565 5563 5562 5560 5559 5558 5557 5556 5554 5553 5551 5550 5548 5547 5545 5544 5542 5540 5538 5536 5534 5532 5531 5529 5528 5526 5525 5524 5523 5522
5566 5566 5565 5565 5564 5563 5563 5562 5561 5560 5559 5558 5557 5556 5554 5553 5552 5550 5549 5548 5547 5546 5544 5543 5542 5540 5538 5537 5535 5534 5532 5531 5529 5527 5525 5523 5522 5520 5519 5518 5516 5515 5514 5513